When you browse on this site, cookies collect data to enhance your experience and personalize the content and advertising you see.
Visit our Privacy Policy to learn more. By continuing to use the site, you agree to this use of cookies and data.
  • In Austria
  • List of Countries
  • For 7 days
  • Water Temperature
  • Satellite Maps
  • Weather Map
  • News
  • Weather Widgets
  • user-avatar
    Login

    Hourly Weather Solden

    Today, 18 January, Friday

    Time Temperature Precipitation Wind Pressure Humidity
    00:00 -9°C° 0.5 mm 2 mps 574 mmHg 88%
    01:00 -9°C° 0.5 mm 2 mps 574 mmHg 88%
    02:00 -9°C° 0.2 mm 2 mps 574 mmHg 85%
    03:00 -12°C° 0.2 mm 3 mps 574 mmHg 83%
    04:00 -12°C° 0.2 mm 3 mps 574 mmHg 81%
    05:00 -13°C° 0 mm 3 mps 573 mmHg 80%
    06:00 -14°C° 0 mm 3 mps 573 mmHg 80%
    07:00 -15°C° 0 mm 3 mps 573 mmHg 79%
    08:00 -15°C° 0 mm 3 mps 574 mmHg 76%
    09:00 -14°C° 0 mm 3 mps 575 mmHg 73%
    10:00 -13°C° 0 mm 3 mps 576 mmHg 69%
    11:00 -12°C° 0 mm 3 mps 576 mmHg 66%
    12:00 -9°C° 0 mm 2 mps 577 mmHg 63%
    13:00 -9°C° 0 mm 2 mps 577 mmHg 60%
    14:00 -9°C° 0 mm 2 mps 577 mmHg 63%
    15:00 -9°C° 0 mm 1 mps 577 mmHg 66%
    16:00 -10°C° 0 mm 1 mps 576 mmHg 68%
    17:00 -11°C° 0 mm 1 mps 576 mmHg 71%
    18:00 -12°C° 0 mm 1 mps 575 mmHg 73%
    19:00 -14°C° 0 mm 1 mps 575 mmHg 75%
    20:00 -14°C° 0 mm 1 mps 575 mmHg 74%
    21:00 -14°C° 0 mm 1 mps 575 mmHg 73%
    22:00 -14°C° 0 mm 1 mps 575 mmHg 71%
    23:00 -15°C° 0 mm 1 mps 575 mmHg 70%

    Tomorrow, 19 January, Saturday

    Time Temperature Precipitation Wind Pressure Humidity
    00:00 -15°C° 0 mm 1 mps 575 mmHg 69%
    01:00 -15°C° 0 mm 1 mps 575 mmHg 67%
    02:00 -14°C° 0 mm 1 mps 575 mmHg 67%
    03:00 -14°C° 0 mm 1 mps 575 mmHg 67%
    04:00 -14°C° 0 mm 1 mps 575 mmHg 67%
    05:00 -14°C° 0 mm 1 mps 574 mmHg 68%
    06:00 -14°C° 0 mm 1 mps 574 mmHg 69%
    07:00 -14°C° 0 mm 1 mps 574 mmHg 70%
    08:00 -13°C° 0 mm 1 mps 575 mmHg 69%
    09:00 -11°C° 0 mm 1 mps 575 mmHg 68%
    10:00 -10°C° 0 mm 0 mps 576 mmHg 68%
    11:00 -9°C° 0 mm 1 mps 576 mmHg 67%
    12:00 -8°C° 0 mm 1 mps 576 mmHg 67%
    13:00 -8°C° 0 mm 1 mps 576 mmHg 67%
    14:00 -8°C° 0.1 mm 1 mps 576 mmHg 70%
    15:00 -8°C° 0.1 mm 1 mps 575 mmHg 73%
    16:00 -9°C° 0.1 mm 1 mps 575 mmHg 75%
    17:00 -10°C° 0 mm 1 mps 574 mmHg 78%
    18:00 -11°C° 0 mm 1 mps 574 mmHg 81%
    19:00 -12°C° 0 mm 0 mps 573 mmHg 83%
    20:00 -13°C° 0 mm 1 mps 573 mmHg 82%
    21:00 -13°C° 0 mm 1 mps 573 mmHg 82%
    22:00 -14°C° 0 mm 1 mps 573 mmHg 81%
    23:00 -14°C° 0 mm 1 mps 573 mmHg 80%

    Day after tomorrow, 20 January, Sunday

    Time Temperature Precipitation Wind Pressure Humidity
    00:00 -14°C° 0 mm 1 mps 573 mmHg 79%
    01:00 -15°C° 0 mm 1 mps 572 mmHg 77%
    02:00 -14°C° 0 mm 1 mps 572 mmHg 76%
    03:00 -14°C° 0 mm 1 mps 572 mmHg 75%
    04:00 -14°C° 0 mm 1 mps 572 mmHg 74%
    05:00 -14°C° 0 mm 1 mps 572 mmHg 73%
    06:00 -14°C° 0 mm 1 mps 573 mmHg 73%
    07:00 -14°C° 0 mm 1 mps 573 mmHg 72%
    08:00 -12°C° 0 mm 1 mps 573 mmHg 70%
    09:00 -11°C° 0 mm 1 mps 574 mmHg 67%
    10:00 -10°C° 0 mm 1 mps 575 mmHg 65%
    11:00 -8°C° 0 mm 1 mps 575 mmHg 62%
    12:00 -7°C° 0 mm 1 mps 576 mmHg 58%
    13:00 -6°C° 0 mm 0 mps 576 mmHg 55%
    14:00 -7°C° 0 mm 0 mps 576 mmHg 59%
    15:00 -7°C° 0 mm 0 mps 576 mmHg 62%
    16:00 -8°C° 0 mm 0 mps 575 mmHg 65%
    17:00 -9°C° 0.1 mm 0 mps 575 mmHg 67%
    18:00 -9°C° 0.1 mm 0 mps 575 mmHg 69%
    19:00 -10°C° 0.1 mm 1 mps 575 mmHg 71%
    20:00 -11°C° 0.1 mm 1 mps 576 mmHg 73%
    21:00 -11°C° 0.1 mm 1 mps 576 mmHg 75%
    22:00 -11°C° 0.1 mm 1 mps 576 mmHg 76%
    23:00 -11°C° 0.1 mm 1 mps 576 mmHg 77%

    21 January, Monday

    Time Temperature Precipitation Wind Pressure Humidity
    00:00 -11°C° 0.1 mm 1 mps 576 mmHg 78%
    01:00 -11°C° 0.1 mm 1 mps 576 mmHg 79%
    02:00 -12°C° 0 mm 1 mps 576 mmHg 79%
    03:00 -12°C° 0 mm 1 mps 576 mmHg 80%
    04:00 -12°C° 0 mm 1 mps 576 mmHg 80%
    05:00 -12°C° 0 mm 1 mps 576 mmHg 80%
    06:00 -13°C° 0 mm 1 mps 576 mmHg 79%
    07:00 -13°C° 0 mm 1 mps 576 mmHg 79%
    08:00 -12°C° 0 mm 1 mps 577 mmHg 76%
    09:00 -11°C° 0 mm 1 mps 578 mmHg 73%
    10:00 -9°C° 0 mm 1 mps 578 mmHg 70%
    11:00 -9°C° 0 mm 1 mps 579 mmHg 67%
    12:00 -8°C° 0 mm 1 mps 579 mmHg 64%
    13:00 -7°C° 0 mm 1 mps 579 mmHg 61%
    14:00 -7°C° 0 mm 1 mps 579 mmHg 64%
    15:00 -8°C° 0 mm 0 mps 578 mmHg 67%
    16:00 -8°C° 0 mm 0 mps 578 mmHg 71%
    17:00 -10°C° 0 mm 1 mps 577 mmHg 73%
    18:00 -11°C° 0 mm 1 mps 577 mmHg 75%
    19:00 -12°C° 0 mm 1 mps 576 mmHg 78%
    20:00 -13°C° 0 mm 1 mps 576 mmHg 77%
    21:00 -13°C° 0 mm 1 mps 576 mmHg 77%
    22:00 -16°C° 0 mm 2 mps 576 mmHg 76%
    23:00 -14°C° 0 mm 1 mps 575 mmHg 74%

    22 January, Tuesday

    Time Temperature Precipitation Wind Pressure Humidity
    00:00 -14°C° 0 mm 1 mps 575 mmHg 71%
    01:00 -14°C° 0 mm 1 mps 575 mmHg 69%
    02:00 -14°C° 0 mm 1 mps 574 mmHg 66%
    03:00 -14°C° 0 mm 1 mps 574 mmHg 63%
    04:00 -15°C° 0 mm 1 mps 573 mmHg 60%
    05:00 -15°C° 0 mm 1 mps 573 mmHg 58%
    06:00 -15°C° 0 mm 1 mps 572 mmHg 55%
    07:00 -15°C° 0 mm 1 mps 572 mmHg 53%
    08:00 -13°C° 0 mm 1 mps 572 mmHg 53%
    09:00 -11°C° 0 mm 1 mps 572 mmHg 52%
    10:00 -10°C° 0 mm 1 mps 573 mmHg 51%
    11:00 -9°C° 0 mm 1 mps 572 mmHg 51%
    12:00 -8°C° 0 mm 1 mps 572 mmHg 50%
    13:00 -7°C° 0 mm 1 mps 572 mmHg 50%
    14:00 -7°C° 0.1 mm 1 mps 571 mmHg 56%
    15:00 -8°C° 0.1 mm 1 mps 570 mmHg 62%
    16:00 -8°C° 0.1 mm 1 mps 569 mmHg 68%
    17:00 -9°C° 0.1 mm 1 mps 568 mmHg 71%
    18:00 -10°C° 0.1 mm 1 mps 568 mmHg 74%
    19:00 -11°C° 0.1 mm 1 mps 567 mmHg 77%
    20:00 -11°C° 0.1 mm 1 mps 567 mmHg 78%
    21:00 -11°C° 0.1 mm 1 mps 567 mmHg 80%
    22:00 -11°C° 0.1 mm 1 mps 567 mmHg 81%
    23:00 -11°C° 0.1 mm 1 mps 566 mmHg 81%

    23 January, Wednesday

    Time Temperature Precipitation Wind Pressure Humidity
    00:00 -11°C° 0.1 mm 1 mps 566 mmHg 82%
    01:00 -11°C° 0.1 mm 1 mps 566 mmHg 82%
    02:00 -11°C° 0.1 mm 1 mps 566 mmHg 82%
    03:00 -11°C° 0.1 mm 1 mps 565 mmHg 82%
    04:00 -11°C° 0.1 mm 1 mps 565 mmHg 81%
    05:00 -11°C° 0.1 mm 1 mps 565 mmHg 81%
    06:00 -11°C° 0.1 mm 1 mps 565 mmHg 81%
    07:00 -11°C° 0.1 mm 1 mps 565 mmHg 80%
    08:00 -10°C° 0.1 mm 1 mps 565 mmHg 78%
    09:00 -9°C° 0.1 mm 1 mps 566 mmHg 76%
    10:00 -8°C° 0.1 mm 1 mps 566 mmHg 74%
    11:00 -8°C° 0.1 mm 1 mps 566 mmHg 73%
    12:00 -7°C° 0.1 mm 1 mps 566 mmHg 72%
    13:00 -6°C° 0.1 mm 1 mps 567 mmHg 71%
    14:00 -7°C° 0.1 mm 1 mps 566 mmHg 73%
    15:00 -7°C° 0.1 mm 1 mps 566 mmHg 75%
    16:00 -8°C° 0.1 mm 1 mps 566 mmHg 78%
    17:00 -9°C° 0.1 mm 1 mps 565 mmHg 79%
    18:00 -10°C° 0.1 mm 1 mps 565 mmHg 80%
    19:00 -11°C° 0.1 mm 1 mps 565 mmHg 81%
    20:00 -11°C° 0.1 mm 1 mps 565 mmHg 81%
    21:00 -11°C° 0.1 mm 1 mps 565 mmHg 81%
    22:00 -11°C° 0.1 mm 1 mps 565 mmHg 81%
    23:00 -11°C° 0.1 mm 1 mps 565 mmHg 82%
    Show more